Location: ??????
(56.0120°N, 39.1740°E)
Time: 19:46:11
(UTC+00:00)

MOZ.5/SAFIR/RUBIN 5/SL-8 - Pass Details

Date: 14 April 2026
Orbit: 665 x 693 km, 98.4° (Epoch: 19 May)

Event Time Altitude Azimuth Distance (km) Brightness Sun altitude
Exits shadow 23:33:27 25° 164° (SSE) 1,386 5.0 -19.0°
Maximum altitude 23:36:13 88° 248° (WSW) 696 3.7 -18.8°
Drops below altitude 10° 23:40:56 10° 344° (NNW) 2,142 6.8 -18.4°
Sets 23:43:10 0° 344° (NNW) 3,058 7.7 -18.2°
